Location: Coopersdale
(40.3556°N, 78.9372°W)
Time: 23:50:07
(UTC+00:00)

Transit 4A - Pass Details

Date: 29 January 2021
Orbit: 867 x 978 km, 66.8° (Epoch: 07 March)

Event Time Altitude Azimuth Distance (km) Brightness Sun altitude
Rises 01:12:55 0° 265° (W) 3,673 12.2 -31.1°
Reaches altitude 10° 01:16:43 10° 287° (WNW) 2,727 11.2 -31.9°
Maximum altitude 01:20:22 16° 322° (NW) 2,340 10.4 -32.6°
Drops below altitude 10° 01:24:01 10° 358° (N) 2,713 10.4 -33.3°
Enters shadow 01:24:33 - 2° (N) 2,819 10.4 -33.4°
Sets 01:27:48 0° 20° (NNE) 3,645 - -34.0°
